OPS 4682 DEB, 18670

Orbit data source: Space-Track

OPS 4682 DEB, 18670 is space debris in LEO originally from a launch on Sat, 03 Apr 1965 UTC launched from the Air Force Western Test Range (AFWTR). Debris objects in space refer to the collection of defunct objects orbiting the Earth. Examples of debris include non-operational satellites, rocket bodies, and fragments generated from explosions, collisions, or faulty payload assembly.

Loading next visibility...
Identifier
18670, 1965-027AG
Orbit
LEO
Country
Flag of USUS
Related business
Manufacturer
Unknown
Mission
Spacecraft
Bus & Motor
Unknown
Mass
Unknown
Launch date (UTC)
1965-04-03 (61 years ago)
Launch vehicle
Unknown
Launch site
Air Force Western Test Range (AFWTR)
Object type
Payload
Rocket body
Debris
Shape & HBR
Unknown shape, 0.1 m
Radar Cross Section
Small (<0.1 m²)

Expand to show TLE details & history
Last TLE update: 2 days ago

TLE from 2 days ago
0 OPS 4682 DEB
1 18670U 65027AG  26034.63640789  .00000757  00000-0  25914-2 0  9992
2 18670  90.2404 353.3842 0023942 121.2716 239.0754 12.97162465645458
Epoch: 2026-02-03T15:16Z
TLE epoch observation values (Epoch: 2026-02-03T15:16:25.641Z)
Latitude
-0.00001°
Longitude
-9.53713°
Altitude
1,285.552 km
Speed
7.209 km/s
True Right ascension
23h 33m 32s
True Declination
0° 00' 00"
Sunlit
Object was in daylight at epoch
Visualization orbit readout
Latitude
Unknown
Longitude
Unknown
Altitude
Unknown
Speed
Unknown
Apparent Right ascension
Unknown
Apparent Declination
Unknown
Sunlit
N/A
Visualization observer readout
Local Sidereal Time
07:15:55
Azimuth
Unknown
Elevation
Unknown
Doppler factor
Unknown
Orbital elements
Apogee altitude
1,288.668 km
Perigee altitude
1,252.044 km
Semi-major axis
7,648.493 km
Eccentricity
0.00239
Inclination
90.2404°
RAAN
353.3842°
Arg. of periapsis
121.2716°
True anomaly
238.84041°
Mean anomaly
239.0754°
Eccentric anomaly
238.95787°
Mean motion
3.24474 °/min
Orbital period
110.95 mins
BSTAR
0.0025914
Loading maneuver chart data...
Computing Atmospheric mass density...
Loading historical data...
Loading historical data...
Loading historical data...
Loading historical data...
Loading historical data...
Loading historical data...
Loading historical data...

Documentation

Showing up to 5 results
|